When you browse on this site, cookies collect data to enhance your experience and personalize the content and advertising you see.
Visit our Privacy Policy to learn more. By continuing to use the site, you agree to this use of cookies and data.
  • In Spain
  • List of Countries
  • For 7 days
  • Water Temperature
  • Satellite Maps
  • Weather Map
  • Weather Widgets
  • user-avatar
    Login

    Hourly Weather Verhnie Domanichi

    Today, 22 May, Wednesday

    Time Temperature Precipitation Wind Pressure Humidity
    00:00 +14°C° 0 mm 2 mps 741 mmHg 92%
    01:00 +14°C° 0 mm 2 mps 741 mmHg 93%
    02:00 +13°C° 0 mm 1 mps 740 mmHg 92%
    03:00 +14°C° 0 mm 2 mps 740 mmHg 92%
    04:00 +14°C° 0 mm 2 mps 740 mmHg 92%
    05:00 +14°C° 0 mm 2 mps 740 mmHg 91%
    06:00 +16°C° 0 mm 2 mps 740 mmHg 86%
    07:00 +17°C° 0 mm 2 mps 740 mmHg 81%
    08:00 +19°C° 0 mm 2 mps 740 mmHg 74%
    09:00 +20°C° 0.1 mm 2 mps 739 mmHg 71%
    10:00 +21°C° 0.1 mm 2 mps 739 mmHg 69%
    11:00 +23°C° 0.1 mm 2 mps 739 mmHg 66%
    12:00 +23°C° 0.6 mm 2 mps 739 mmHg 65%
    13:00 +23°C° 0.6 mm 2 mps 738 mmHg 65%
    14:00 +24°C° 0.6 mm 2 mps 738 mmHg 64%
    15:00 +24°C° 0.7 mm 2 mps 738 mmHg 66%
    16:00 +23°C° 0.7 mm 2 mps 738 mmHg 68%
    17:00 +23°C° 0.7 mm 2 mps 737 mmHg 70%
    18:00 +22°C° 0.1 mm 1 mps 737 mmHg 75%
    19:00 +20°C° 0.1 mm 1 mps 737 mmHg 80%
    20:00 +18°C° 0.1 mm 1 mps 737 mmHg 85%
    21:00 +18°C° 0 mm 1 mps 737 mmHg 86%
    22:00 +16°C° 0 mm 1 mps 737 mmHg 87%
    23:00 +16°C° 0 mm 1 mps 736 mmHg 88%

    Tomorrow, 23 May, Thursday

    Time Temperature Precipitation Wind Pressure Humidity
    00:00 +15°C° 0 mm 1 mps 736 mmHg 89%
    01:00 +15°C° 0 mm 1 mps 736 mmHg 89%
    02:00 +15°C° 0 mm 1 mps 736 mmHg 90%
    03:00 +15°C° 0 mm 2 mps 736 mmHg 89%
    04:00 +15°C° 0 mm 2 mps 736 mmHg 88%
    05:00 +15°C° 0 mm 2 mps 736 mmHg 88%
    06:00 +17°C° 0 mm 2 mps 736 mmHg 83%
    07:00 +18°C° 0 mm 2 mps 736 mmHg 79%
    08:00 +20°C° 0 mm 2 mps 736 mmHg 74%
    09:00 +21°C° 0 mm 3 mps 736 mmHg 69%
    10:00 +22°C° 0 mm 3 mps 736 mmHg 65%
    11:00 +25°C° 0 mm 4 mps 736 mmHg 60%
    12:00 +25°C° 0.2 mm 4 mps 736 mmHg 60%
    13:00 +25°C° 0.2 mm 4 mps 736 mmHg 61%
    14:00 +25°C° 0.2 mm 4 mps 736 mmHg 61%
    15:00 +25°C° 0.4 mm 4 mps 736 mmHg 65%
    16:00 +24°C° 0.4 mm 3 mps 735 mmHg 69%
    17:00 +24°C° 0.4 mm 3 mps 735 mmHg 73%
    18:00 +21°C° 0.1 mm 2 mps 735 mmHg 78%
    19:00 +20°C° 0.1 mm 2 mps 735 mmHg 83%
    20:00 +18°C° 0.1 mm 2 mps 736 mmHg 87%
    21:00 +18°C° 0.3 mm 2 mps 736 mmHg 89%
    22:00 +17°C° 0.3 mm 2 mps 736 mmHg 90%
    23:00 +16°C° 0.3 mm 1 mps 736 mmHg 92%

    Day after tomorrow, 24 May, Friday

    Time Temperature Precipitation Wind Pressure Humidity
    00:00 +16°C° 0 mm 2 mps 736 mmHg 93%
    01:00 +15°C° 0 mm 2 mps 736 mmHg 94%
    02:00 +15°C° 0 mm 2 mps 737 mmHg 95%
    03:00 +15°C° 0 mm 2 mps 737 mmHg 95%
    04:00 +15°C° 0 mm 2 mps 737 mmHg 96%
    05:00 +14°C° 0 mm 3 mps 737 mmHg 96%
    06:00 +14°C° 0 mm 3 mps 737 mmHg 94%
    07:00 +16°C° 0 mm 3 mps 738 mmHg 91%
    08:00 +17°C° 0 mm 3 mps 738 mmHg 88%
    09:00 +17°C° 0 mm 3 mps 738 mmHg 87%
    10:00 +18°C° 0 mm 3 mps 738 mmHg 85%
    11:00 +18°C° 0 mm 3 mps 738 mmHg 83%
    12:00 +19°C° 0 mm 3 mps 738 mmHg 81%
    13:00 +19°C° 0 mm 3 mps 738 mmHg 79%
    14:00 +20°C° 0 mm 3 mps 738 mmHg 77%
    15:00 +20°C° 0 mm 3 mps 738 mmHg 77%
    16:00 +20°C° 0 mm 3 mps 737 mmHg 78%
    17:00 +20°C° 0 mm 4 mps 737 mmHg 79%
    18:00 +19°C° 0.2 mm 3 mps 737 mmHg 83%
    19:00 +18°C° 0.2 mm 3 mps 737 mmHg 87%
    20:00 +16°C° 0.2 mm 3 mps 737 mmHg 92%
    21:00 +16°C° 0.4 mm 3 mps 737 mmHg 93%
    22:00 +16°C° 0.4 mm 3 mps 737 mmHg 94%
    23:00 +14°C° 0.4 mm 3 mps 737 mmHg 95%

    25 May, Saturday

    Time Temperature Precipitation Wind Pressure Humidity
    00:00 +14°C° 0.4 mm 3 mps 737 mmHg 96%
    01:00 +13°C° 0.4 mm 3 mps 736 mmHg 97%
    02:00 +13°C° 0.4 mm 3 mps 736 mmHg 97%
    03:00 +13°C° 0.2 mm 3 mps 736 mmHg 97%
    04:00 +15°C° 0.2 mm 2 mps 736 mmHg 97%
    05:00 +15°C° 0.2 mm 2 mps 735 mmHg 96%
    06:00 +16°C° 0.1 mm 2 mps 735 mmHg 94%
    07:00 +16°C° 0.1 mm 2 mps 735 mmHg 92%
    08:00 +17°C° 0.1 mm 2 mps 735 mmHg 90%
    09:00 +18°C° 0.6 mm 2 mps 735 mmHg 85%
    10:00 +20°C° 0.6 mm 1 mps 735 mmHg 80%
    11:00 +22°C° 0.6 mm 1 mps 735 mmHg 74%
    12:00 +21°C° 1.9 mm 1 mps 734 mmHg 77%
    13:00 +21°C° 1.9 mm 1 mps 734 mmHg 80%
    14:00 +21°C° 1.9 mm 1 mps 734 mmHg 83%
    15:00 +21°C° 0.4 mm 1 mps 734 mmHg 82%
    16:00 +20°C° 0.4 mm 1 mps 733 mmHg 82%
    17:00 +19°C° 0.4 mm 2 mps 733 mmHg 82%
    18:00 +18°C° 0.1 mm 2 mps 733 mmHg 86%
    19:00 +17°C° 0.1 mm 2 mps 733 mmHg 90%
    20:00 +16°C° 0.1 mm 2 mps 733 mmHg 94%
    21:00 +15°C° 0 mm 2 mps 733 mmHg 93%
    22:00 +13°C° 0 mm 3 mps 733 mmHg 93%
    23:00 +13°C° 0 mm 3 mps 733 mmHg 93%

    26 May, Sunday

    Time Temperature Precipitation Wind Pressure Humidity
    00:00 +12°C° 0 mm 3 mps 734 mmHg 94%
    01:00 +11°C° 0 mm 3 mps 734 mmHg 94%
    02:00 +10°C° 0 mm 3 mps 734 mmHg 95%
    03:00 +10°C° 0 mm 3 mps 734 mmHg 95%
    04:00 +10°C° 0 mm 3 mps 735 mmHg 95%
    05:00 +10°C° 0 mm 3 mps 735 mmHg 95%
    06:00 +11°C° 0 mm 3 mps 735 mmHg 90%
    07:00 +12°C° 0 mm 3 mps 735 mmHg 85%
    08:00 +13°C° 0 mm 3 mps 735 mmHg 80%
    09:00 +14°C° 0 mm 4 mps 735 mmHg 74%
    10:00 +15°C° 0 mm 4 mps 735 mmHg 69%
    11:00 +17°C° 0 mm 4 mps 735 mmHg 63%
    12:00 +18°C° 0 mm 4 mps 735 mmHg 62%
    13:00 +17°C° 0 mm 5 mps 735 mmHg 61%
    14:00 +19°C° 0 mm 5 mps 735 mmHg 60%
    15:00 +18°C° 0 mm 4 mps 735 mmHg 61%
    16:00 +18°C° 0 mm 4 mps 735 mmHg 63%
    17:00 +18°C° 0 mm 4 mps 735 mmHg 64%
    18:00 +16°C° 0 mm 3 mps 734 mmHg 73%
    19:00 +14°C° 0 mm 2 mps 734 mmHg 81%
    20:00 +12°C° 0 mm 2 mps 734 mmHg 90%
    21:00 +13°C° 0.1 mm 2 mps 734 mmHg 89%
    22:00 +13°C° 0.1 mm 2 mps 734 mmHg 89%
    23:00 +12°C° 0.1 mm 3 mps 734 mmHg 88%

    27 May, Monday

    Time Temperature Precipitation Wind Pressure Humidity
    00:00 +11°C° 0.3 mm 3 mps 734 mmHg 90%
    01:00 +11°C° 0.3 mm 3 mps 733 mmHg 92%
    02:00 +10°C° 0.3 mm 3 mps 733 mmHg 94%
    03:00 +8°C° 0.2 mm 4 mps 733 mmHg 94%
    04:00 +8°C° 0.2 mm 4 mps 734 mmHg 94%
    05:00 +7°C° 0.2 mm 5 mps 734 mmHg 94%
    06:00 +8°C° 0.1 mm 5 mps 734 mmHg 88%
    07:00 +9°C° 0.1 mm 6 mps 734 mmHg 83%
    08:00 +9°C° 0.1 mm 7 mps 735 mmHg 77%
    09:00 +10°C° 0.2 mm 7 mps 735 mmHg 75%
    10:00 +10°C° 0.2 mm 7 mps 735 mmHg 74%
    11:00 +10°C° 0.2 mm 8 mps 736 mmHg 72%
    12:00 +11°C° 0 mm 8 mps 736 mmHg 72%
    13:00 +11°C° 0 mm 7 mps 736 mmHg 72%
    14:00 +11°C° 0 mm 7 mps 737 mmHg 73%
    15:00 +11°C° 0 mm 7 mps 737 mmHg 72%
    16:00 +12°C° 0 mm 7 mps 738 mmHg 72%
    17:00 +13°C° 0 mm 6 mps 738 mmHg 72%
    18:00 +12°C° 0 mm 5 mps 738 mmHg 76%
    19:00 +10°C° 0 mm 5 mps 739 mmHg 80%
    20:00 +10°C° 0 mm 4 mps 739 mmHg 84%
    21:00 +9°C° 0 mm 3 mps 740 mmHg 87%
    22:00 +8°C° 0 mm 3 mps 740 mmHg 90%
    23:00 +7°C° 0 mm 3 mps 740 mmHg 93%
    Show more